When you browse on this site, cookies collect data to enhance your experience and personalize the content and advertising you see.
Visit our Privacy Policy to learn more. By continuing to use the site, you agree to this use of cookies and data.
  • Em Portugal
  • Lista de países
  • Para 7 dias
  • Temperatura da água
  • Mapa do tempo
  • Widgets de tempo
  • user-avatar
    Iniciar Sessão

    Previsão horária em Abomey

    Hoje, 1 Junho, Segunda-feira

    Tempo Temperatura Precipitação Vento Pressão Humidade
    00:00 +26°C° 0 mm 2 m/s 741 mmHg 81%
    01:00 +26°C° 0 mm 2 m/s 740 mmHg 83%
    02:00 +26°C° 0 mm 1 m/s 740 mmHg 85%
    03:00 +25°C° 0 mm 1 m/s 740 mmHg 88%
    04:00 +25°C° 0 mm 1 m/s 740 mmHg 88%
    05:00 +25°C° 0 mm 1 m/s 740 mmHg 88%
    06:00 +25°C° 0 mm 1 m/s 741 mmHg 88%
    07:00 +27°C° 0 mm 2 m/s 741 mmHg 80%
    08:00 +29°C° 0 mm 2 m/s 741 mmHg 71%
    09:00 +31°C° 0 mm 3 m/s 741 mmHg 62%
    10:00 +34°C° 0 mm 2 m/s 741 mmHg 56%
    11:00 +36°C° 0 mm 2 m/s 741 mmHg 50%
    12:00 +36°C° 0 mm 1 m/s 740 mmHg 44%
    13:00 +36°C° 0 mm 1 m/s 740 mmHg 44%
    14:00 +36°C° 0 mm 1 m/s 739 mmHg 43%
    15:00 +36°C° 0 mm 1 m/s 738 mmHg 42%
    16:00 +35°C° 0 mm 2 m/s 738 mmHg 48%
    17:00 +34°C° 0 mm 3 m/s 738 mmHg 54%
    18:00 +31°C° 0 mm 3 m/s 738 mmHg 60%
    19:00 +30°C° 0 mm 3 m/s 739 mmHg 66%
    20:00 +29°C° 0 mm 3 m/s 739 mmHg 71%
    21:00 +28°C° 0 mm 3 m/s 739 mmHg 76%
    22:00 +27°C° 0.1 mm 3 m/s 740 mmHg 79%
    23:00 +27°C° 0.1 mm 2 m/s 740 mmHg 82%

    Amanhã, 2 Junho, Terça-feira

    Tempo Temperatura Precipitação Vento Pressão Humidade
    00:00 +26°C° 0.1 mm 2 m/s 740 mmHg 85%
    01:00 +26°C° 0 mm 2 m/s 740 mmHg 87%
    02:00 +26°C° 0 mm 2 m/s 740 mmHg 88%
    03:00 +26°C° 0 mm 2 m/s 739 mmHg 89%
    04:00 +26°C° 0 mm 2 m/s 739 mmHg 89%
    05:00 +26°C° 0 mm 3 m/s 739 mmHg 89%
    06:00 +26°C° 0 mm 3 m/s 739 mmHg 88%
    07:00 +27°C° 0 mm 3 m/s 740 mmHg 82%
    08:00 +29°C° 0 mm 3 m/s 740 mmHg 76%
    09:00 +30°C° 0 mm 3 m/s 740 mmHg 70%
    10:00 +31°C° 0 mm 3 m/s 740 mmHg 66%
    11:00 +33°C° 0 mm 3 m/s 740 mmHg 62%
    12:00 +35°C° 0 mm 3 m/s 740 mmHg 57%
    13:00 +35°C° 0.2 mm 3 m/s 739 mmHg 58%
    14:00 +35°C° 0.2 mm 3 m/s 739 mmHg 58%
    15:00 +35°C° 0.2 mm 3 m/s 738 mmHg 58%
    16:00 +33°C° 1 mm 3 m/s 738 mmHg 67%
    17:00 +30°C° 1 mm 3 m/s 738 mmHg 75%
    18:00 +28°C° 1 mm 3 m/s 739 mmHg 84%
    19:00 +28°C° 0 mm 3 m/s 739 mmHg 85%
    20:00 +27°C° 0 mm 3 m/s 739 mmHg 86%
    21:00 +27°C° 0 mm 4 m/s 740 mmHg 87%
    22:00 +27°C° 0 mm 3 m/s 740 mmHg 88%
    23:00 +26°C° 0 mm 3 m/s 740 mmHg 89%

    Depois de amanhã, 3 Junho, Quarta-feira

    Tempo Temperatura Precipitação Vento Pressão Humidade
    00:00 +26°C° 0 mm 2 m/s 740 mmHg 90%
    01:00 +26°C° 0 mm 2 m/s 739 mmHg 91%
    02:00 +26°C° 0 mm 2 m/s 739 mmHg 92%
    03:00 +25°C° 0 mm 1 m/s 739 mmHg 93%
    04:00 +25°C° 0 mm 1 m/s 739 mmHg 94%
    05:00 +25°C° 0 mm 1 m/s 739 mmHg 94%
    06:00 +25°C° 0 mm 1 m/s 739 mmHg 94%
    07:00 +27°C° 0 mm 2 m/s 740 mmHg 85%
    08:00 +29°C° 0 mm 3 m/s 740 mmHg 76%
    09:00 +30°C° 0 mm 3 m/s 740 mmHg 68%
    10:00 +33°C° 0 mm 4 m/s 740 mmHg 63%
    11:00 +34°C° 0 mm 4 m/s 739 mmHg 58%
    12:00 +35°C° 0 mm 4 m/s 739 mmHg 53%
    13:00 +35°C° 0 mm 4 m/s 738 mmHg 54%
    14:00 +35°C° 0 mm 4 m/s 738 mmHg 55%
    15:00 +35°C° 0 mm 4 m/s 738 mmHg 56%
    16:00 +33°C° 0 mm 4 m/s 738 mmHg 61%
    17:00 +32°C° 0 mm 4 m/s 738 mmHg 66%
    18:00 +30°C° 0 mm 3 m/s 738 mmHg 71%
    19:00 +29°C° 0 mm 3 m/s 739 mmHg 74%
    20:00 +28°C° 0 mm 3 m/s 739 mmHg 78%
    21:00 +27°C° 0 mm 3 m/s 739 mmHg 82%
    22:00 +27°C° 0 mm 2 m/s 739 mmHg 84%
    23:00 +27°C° 0 mm 2 m/s 739 mmHg 85%

    4 Junho, Quinta-feira

    Tempo Temperatura Precipitação Vento Pressão Humidade
    00:00 +26°C° 0 mm 2 m/s 739 mmHg 87%
    01:00 +26°C° 0 mm 2 m/s 739 mmHg 88%
    02:00 +26°C° 0 mm 1 m/s 739 mmHg 89%
    03:00 +26°C° 0 mm 1 m/s 738 mmHg 91%
    04:00 +26°C° 0 mm 1 m/s 738 mmHg 91%
    05:00 +26°C° 0 mm 1 m/s 739 mmHg 91%
    06:00 +26°C° 0 mm 1 m/s 739 mmHg 91%
    07:00 +27°C° 0 mm 2 m/s 739 mmHg 82%
    08:00 +29°C° 0 mm 2 m/s 740 mmHg 73%
    09:00 +31°C° 0 mm 3 m/s 740 mmHg 64%
    10:00 +34°C° 0 mm 3 m/s 740 mmHg 59%
    11:00 +35°C° 0 mm 3 m/s 740 mmHg 53%
    12:00 +36°C° 0 mm 2 m/s 739 mmHg 48%
    13:00 +36°C° 0.3 mm 3 m/s 739 mmHg 51%
    14:00 +35°C° 0.3 mm 3 m/s 738 mmHg 55%
    15:00 +34°C° 0.3 mm 3 m/s 737 mmHg 58%
    16:00 +33°C° 0.1 mm 3 m/s 738 mmHg 62%
    17:00 +32°C° 0.1 mm 4 m/s 738 mmHg 66%
    18:00 +30°C° 0.1 mm 4 m/s 738 mmHg 70%
    19:00 +29°C° 0 mm 3 m/s 739 mmHg 73%
    20:00 +28°C° 0 mm 3 m/s 739 mmHg 76%
    21:00 +27°C° 0 mm 3 m/s 739 mmHg 79%
    22:00 +27°C° 0 mm 3 m/s 739 mmHg 82%
    23:00 +26°C° 0 mm 3 m/s 739 mmHg 85%

    5 Junho, Sexta-feira

    Tempo Temperatura Precipitação Vento Pressão Humidade
    00:00 +26°C° 0 mm 2 m/s 739 mmHg 87%
    01:00 +26°C° 0 mm 2 m/s 739 mmHg 89%
    02:00 +26°C° 0 mm 1 m/s 739 mmHg 91%
    03:00 +25°C° 0 mm 1 m/s 739 mmHg 93%
    04:00 +25°C° 0 mm 1 m/s 739 mmHg 93%
    05:00 +25°C° 0 mm 1 m/s 739 mmHg 93%
    06:00 +25°C° 0 mm 1 m/s 740 mmHg 94%
    07:00 +27°C° 0 mm 2 m/s 740 mmHg 85%
    08:00 +29°C° 0 mm 2 m/s 741 mmHg 75%
    09:00 +31°C° 0 mm 3 m/s 741 mmHg 66%
    10:00 +32°C° 0 mm 2 m/s 741 mmHg 61%
    11:00 +35°C° 0 mm 2 m/s 740 mmHg 55%
    12:00 +36°C° 0 mm 2 m/s 740 mmHg 49%
    13:00 +35°C° 1 mm 2 m/s 739 mmHg 54%
    14:00 +34°C° 1 mm 3 m/s 738 mmHg 59%
    15:00 +33°C° 1 mm 4 m/s 738 mmHg 63%
    16:00 +32°C° 2.7 mm 4 m/s 738 mmHg 71%
    17:00 +29°C° 2.7 mm 4 m/s 738 mmHg 79%
    18:00 +27°C° 2.7 mm 3 m/s 739 mmHg 87%
    19:00 +26°C° 0.1 mm 3 m/s 739 mmHg 88%
    20:00 +26°C° 0.1 mm 2 m/s 739 mmHg 89%
    21:00 +26°C° 0.1 mm 2 m/s 740 mmHg 91%
    22:00 +25°C° 0 mm 2 m/s 740 mmHg 92%
    23:00 +25°C° 0 mm 1 m/s 739 mmHg 93%

    6 Junho, Sábado

    Tempo Temperatura Precipitação Vento Pressão Humidade
    00:00 +25°C° 0 mm 1 m/s 739 mmHg 94%
    01:00 +25°C° 0 mm 1 m/s 739 mmHg 95%
    02:00 +25°C° 0 mm 1 m/s 739 mmHg 95%
    03:00 +22°C° 0 mm 0 m/s 739 mmHg 96%
    04:00 +23°C° 0 mm 0 m/s 740 mmHg 96%
    05:00 +23°C° 0 mm 0 m/s 740 mmHg 96%
    06:00 +23°C° 0 mm 0 m/s 740 mmHg 96%
    07:00 +26°C° 0 mm 1 m/s 741 mmHg 87%
    08:00 +28°C° 0 mm 1 m/s 741 mmHg 79%
    09:00 +30°C° 0 mm 2 m/s 742 mmHg 71%
    10:00 +30°C° 0 mm 2 m/s 741 mmHg 67%
    11:00 +31°C° 0 mm 2 m/s 741 mmHg 64%
    12:00 +32°C° 0 mm 2 m/s 741 mmHg 61%
    13:00 +32°C° 0 mm 2 m/s 740 mmHg 60%
    14:00 +32°C° 0 mm 2 m/s 740 mmHg 59%
    15:00 +34°C° 0 mm 2 m/s 739 mmHg 59%
    16:00 +32°C° 0 mm 2 m/s 739 mmHg 62%
    17:00 +31°C° 0 mm 2 m/s 738 mmHg 66%
    18:00 +29°C° 0 mm 2 m/s 738 mmHg 70%
    19:00 +29°C° 0 mm 2 m/s 738 mmHg 74%
    20:00 +28°C° 0 mm 2 m/s 739 mmHg 78%
    21:00 +27°C° 0 mm 2 m/s 739 mmHg 82%
    22:00 +26°C° 0 mm 2 m/s 739 mmHg 84%
    23:00 +26°C° 0 mm 2 m/s 739 mmHg 86%
    Mostrar mais